New Iberia, LA

1:49 PM CDT on April 29, 2017 (GMT -0500)
Acadiana Regional

Weather History for KARA - May, 2013

Change the Weather History Date:

Thursday, May 23, 2013

  Actual Average Record
Temperature  
Mean Temperature 81 °F 78 °F  
Max Temperature 90 °F 87 °F 97 °F (2005)
Min Temperature 72 °F 69 °F 51 °F (2001)
Degree Days  
Heating Degree Days 0 0  
Month to date heating degree days 21 0  
Since 1 July heating degree days 1150 1408  
Cooling Degree Days 16 13  
Month to date cooling degree days 189 240  
Year to date cooling degree days 433 460  
Growing Degree Days 30 (Base 50)    
Moisture  
Dew Point 72 °F    
Average Humidity 77    
Maximum Humidity 94    
Minimum Humidity 59    
Precipitation  
Precipitation 0.02 in 0.21 in 2.61 in (1991)
Month to date precipitation 9.10 3.06  
Year to date precipitation 35.35 20.31  
Sea Level Pressure  
Sea Level Pressure 30.01 in    
Wind  
Wind Speed 7 mph (SSE)    
Max Wind Speed 17 mph    
Max Gust Speed 23 mph    
Visibility 8 miles    
Events Fog , Rain    
T = Trace of Precipitation, MM = Missing Value Source: NWS Daily Summary

Daily Weather History Graph

Daily Weather History Graph

Search for Another Location

Airport or City:

Trip Planner

Search our weather history database for the weather conditions in past years. The results will help you decide how hot, cold, wet, or windy it might be!

Date:

Astronomy

May. 23, 2013 Rise Set
Actual Time 6:09 AM CDT 7:59 PM CDT
Civil Twilight 5:43 AM CDT 8:25 PM CDT
Nautical Twilight 5:10 AM CDT 8:58 PM CDT
Astronomical Twilight 4:36 AM CDT 9:32 PM CDT
Moon 6:36 PM CDT (5/23) 4:47 AM CDT (5/23)
Length of Visible Light 14h 42m
Length of Day
13h 49m
Waxing Gibbous, 97% of the Moon is Illuminated
May 23
Waxing Gibbous
May 24
Full
May 31
Last Quarter
Jun 8
New
Jun 16
First Quarter

Hourly Weather History & Observations

Time (CDT) Temp. Heat Index Dew Point Humidity Pressure Visibility Wind Dir Wind Speed Gust Speed Precip Events Conditions
12:07 AM 75.2 °F - 71.6 °F 89% 29.96 in 9.0 mi SE 4.6 mph - N/A   Mostly Cloudy
12:53 AM 75.9 °F - 71.1 °F 85% 29.97 in 10.0 mi East 4.6 mph - N/A   Overcast
1:53 AM 75.9 °F - 72.0 °F 87% 29.96 in 10.0 mi Calm Calm - N/A   Overcast
2:01 AM 75.2 °F - 71.6 °F 89% 29.96 in 10.0 mi Calm Calm - N/A   Overcast
2:53 AM 75.9 °F - 71.1 °F 85% 29.96 in 10.0 mi ESE 4.6 mph - N/A   Overcast
3:53 AM 75.0 °F - 71.1 °F 87% 29.96 in 9.0 mi East 3.5 mph - N/A   Mostly Cloudy
4:53 AM 75.0 °F - 71.1 °F 87% 29.96 in 9.0 mi Calm Calm - N/A   Clear
5:20 AM 73.4 °F - 71.6 °F 94% 29.98 in 5.0 mi Calm Calm - N/A   Scattered Clouds
5:32 AM 73.4 °F - 71.6 °F 94% 29.98 in 5.0 mi Calm Calm - N/A   Mostly Cloudy
5:53 AM 73.9 °F - 71.1 °F 91% 29.99 in 5.0 mi East 3.5 mph - N/A   Overcast
6:32 AM 75.2 °F - 71.6 °F 89% 30.00 in 0.8 mi ESE 4.6 mph - N/A   Overcast
6:53 AM 75.9 °F - 73.0 °F 91% 30.00 in 0.2 mi SE 3.5 mph - N/A Fog Fog
7:53 AM 77.0 °F - 73.9 °F 90% 30.02 in 0.2 mi SSE 5.8 mph - N/A Fog Fog
8:37 AM 78.8 °F - 75.2 °F 89% 30.03 in 3.0 mi SE 5.8 mph - N/A   Overcast
8:53 AM 79.0 °F - 75.9 °F 90% 30.04 in 6.0 mi South 5.8 mph - N/A   Overcast
9:14 AM 80.6 °F 86.2 °F 75.2 °F 84% 30.04 in 7.0 mi SSE 5.8 mph - N/A   Mostly Cloudy
9:53 AM 82.9 °F 90.2 °F 75.0 °F 77% 30.04 in 10.0 mi SSE 5.8 mph - N/A   Mostly Cloudy
10:03 AM 84.2 °F 92.3 °F 75.2 °F 74% 30.04 in 10.0 mi South 9.2 mph - N/A   Scattered Clouds
10:38 AM 82.4 °F 88.2 °F 73.4 °F 74% 30.04 in 10.0 mi South 10.4 mph - N/A   Mostly Cloudy
10:45 AM 82.4 °F 89.5 °F 75.2 °F 79% 30.04 in 10.0 mi South 9.2 mph - N/A   Mostly Cloudy
10:53 AM 82.9 °F 89.4 °F 73.9 °F 74% 30.04 in 10.0 mi South 9.2 mph - N/A   Mostly Cloudy
11:53 AM 84.9 °F 92.1 °F 73.9 °F 69% 30.05 in 10.0 mi South 9.2 mph - N/A   Mostly Cloudy
12:53 PM 88.0 °F 96.5 °F 73.9 °F 63% 30.05 in 10.0 mi SSW 10.4 mph - N/A   Scattered Clouds
1:53 PM 88.0 °F 96.5 °F 73.9 °F 63% 30.05 in 10.0 mi South 8.1 mph - N/A   Scattered Clouds
2:53 PM 89.1 °F 98.0 °F 73.9 °F 61% 30.02 in 10.0 mi SSW 11.5 mph - N/A   Partly Cloudy
3:20 PM 89.6 °F 98.2 °F 73.4 °F 59% 30.02 in 10.0 mi SW 12.7 mph - N/A   Mostly Cloudy
3:29 PM 89.6 °F 98.2 °F 73.4 °F 59% 30.02 in 10.0 mi SW 10.4 mph - N/A   Scattered Clouds
3:53 PM 88.0 °F 96.5 °F 73.9 °F 63% 30.02 in 10.0 mi South 9.2 mph - N/A   Clear
4:53 PM 88.0 °F 96.5 °F 73.9 °F 63% 30.00 in 10.0 mi South 10.4 mph - N/A   Partly Cloudy
5:53 PM 87.1 °F 93.6 °F 72.0 °F 61% 29.99 in 10.0 mi South 6.9 mph - N/A   Clear
6:53 PM 84.9 °F 91.4 °F 73.0 °F 67% 30.01 in 10.0 mi South 9.2 mph - N/A   Clear
7:53 PM 82.0 °F 86.3 °F 71.1 °F 69% 30.04 in 10.0 mi North 11.5 mph 23.0 mph N/A   Mostly Cloudy
8:01 PM 77.0 °F - 64.4 °F 65% 30.05 in 10.0 mi NNW 9.2 mph 21.9 mph 0.00 in Rain Light Rain
8:24 PM 71.6 °F - 64.4 °F 78% 30.05 in 9.0 mi NNW 5.8 mph - 0.02 in Rain Light Rain
8:53 PM 73.0 °F - 66.0 °F 79% 30.03 in 10.0 mi South 3.5 mph - 0.02 in   Clear
9:53 PM 75.0 °F - 68.0 °F 79% 30.05 in 10.0 mi East 10.4 mph - N/A   Partly Cloudy
10:53 PM 75.0 °F - 71.1 °F 87% 30.06 in 10.0 mi North 5.8 mph - N/A   Clear
11:53 PM 73.9 °F - 70.0 °F 87% 30.05 in 8.0 mi West 3.5 mph - N/A   Clear